Weather History for Barter Island, AK

Change the Weather History Date:

Tuesday, March 5, 2013

  Actual Average Record
Temperature  
Mean Temperature -14 °F -  
Max Temperature -9 °F -4 °F 21 °F (2004)
Min Temperature -18 °F -18 °F -36 °F (2007)
Degree Days  
Heating Degree Days 78    
Moisture  
Dew Point -18 °F    
Average Humidity 79    
Maximum Humidity 84    
Minimum Humidity 76    
Precipitation  
Precipitation 0.00 in - - ()
Sea Level Pressure  
Sea Level Pressure 30.39 in    
Wind  
Wind Speed 26 mph (East)    
Max Wind Speed 33 mph    
Max Gust Speed 39 mph    
Visibility 2 miles    
Events Fog , Snow    
Averages and records for this station are not official NWS values.
T = Trace of Precipitation, MM = Missing Value Source: NWS Daily Summary

Daily Weather History Graph

Daily Weather History Graph

Search for Another Location

Airport:

Trip Planner

Search our weather history database for the weather conditions in past years. The results will help you decide how hot, cold, wet, or windy it might be!

Date:

Astronomy

Mar. 05, 2013 Rise Set
Actual Time 7:40 AM AKST 5:52 PM AKST
Civil Twilight 6:39 AM AKST 6:54 PM AKST
Nautical Twilight 5:28 AM AKST 8:05 PM AKST
Astronomical Twilight 4:09 AM AKST 9:25 PM AKST
Moon No Moon Rise No Moon Set
Length of Visible Light 12h 14m
Length of Day
10h 11m
Last Quarter, 39% of the Moon is Illuminated
Mar 5
Last Quarter
Mar 11
New
Mar 19
First Quarter
Mar 27
Full
Apr 2
Last Quarter

Hourly Weather History & Observations

Time (AKST) Temp. Windchill Dew Point Humidity Pressure Visibility Wind Dir Wind Speed Gust Speed Precip Events Conditions
12:01 AM -18.0 °F -46.7 °F -22.0 °F 82% 30.56 in 4.0 mi East 21.9 mph - N/A   Clear
1:01 AM -18.0 °F -47.2 °F -22.0 °F 82% 30.55 in 4.0 mi East 23.0 mph - N/A   Clear
2:01 AM -18.0 °F -46.0 °F -22.0 °F 82% 30.54 in 7.0 mi East 20.7 mph - N/A   Clear
2:59 AM -16.6 °F -45.9 °F -22.0 °F 76% 30.52 in 2.5 mi East 24.2 mph - N/A   Haze
3:01 AM -17.0 °F -46.4 °F -22.0 °F 78% 30.52 in 2.5 mi East 24.2 mph - N/A   Haze
4:01 AM -18.0 °F -47.8 °F -22.0 °F 82% 30.52 in 2.5 mi East 24.2 mph - N/A   Clear
4:21 AM -16.6 °F -45.3 °F -22.0 °F 76% 30.51 in 3.0 mi East 23.0 mph - N/A   Haze
4:37 AM -16.6 °F -46.4 °F -22.0 °F 76% 30.50 in 2.5 mi East 25.3 mph - N/A   Haze
5:01 AM -17.0 °F -46.9 °F -22.0 °F 78% 30.50 in 2.5 mi East 25.3 mph - N/A   Haze
5:40 AM -16.6 °F -45.9 °F -22.0 °F 76% 30.49 in 3.0 mi East 24.2 mph - N/A   Haze
5:54 AM -16.6 °F -46.4 °F -22.0 °F 76% 30.49 in 2.5 mi East 25.3 mph - N/A   Haze
6:01 AM -17.0 °F -46.9 °F -22.0 °F 78% 30.49 in 2.5 mi East 25.3 mph - N/A   Haze
7:01 AM -17.0 °F -46.4 °F -22.0 °F 78% 30.48 in 3.0 mi East 24.2 mph - N/A   Haze
7:25 AM -16.6 °F -45.3 °F -22.0 °F 76% 30.47 in 2.0 mi East 23.0 mph - N/A   Haze
7:47 AM -16.6 °F -45.9 °F -22.0 °F 76% 30.47 in 1.8 mi East 24.2 mph - N/A   Haze
7:59 AM -16.6 °F -44.1 °F -22.0 °F 76% 30.47 in 2.5 mi East 20.7 mph - N/A   Haze
8:01 AM -16.6 °F -45.3 °F -22.0 °F 76% 30.47 in 3.0 mi East 23.0 mph - N/A   Haze
8:48 AM -16.6 °F -45.9 °F -22.0 °F 76% 30.46 in 2.0 mi East 24.2 mph - N/A   Haze
9:01 AM -16.6 °F -45.3 °F -22.0 °F 76% 30.45 in 1.8 mi East 23.0 mph - N/A   Haze
10:13 AM -14.8 °F -44.5 °F -20.2 °F 77% 30.43 in 2.0 mi East 26.5 mph - N/A   Haze
10:33 AM -14.8 °F -45.5 °F -20.2 °F 77% 30.42 in 1.2 mi East 28.8 mph - N/A   Haze
10:56 AM -14.8 °F -45.9 °F -18.4 °F 84% 30.40 in 0.8 mi East 29.9 mph - N/A   Clear
10:57 AM -15.0 °F -46.2 °F -18.9 °F 82% 30.40 in 0.8 mi East 29.9 mph - N/A   Clear
11:33 AM -13.0 °F -43.9 °F -18.4 °F 77% 30.40 in 0.5 mi East 31.1 mph 36.8 mph N/A Snow Snow
12:01 PM -13.0 °F -44.7 °F -17.0 °F 82% 30.39 in 0.5 mi East 33.4 mph - N/A Fog , Snow Light Snow
1:01 PM -11.9 °F -43.3 °F -16.1 °F 82% 30.38 in 0.5 mi East 33.4 mph - 0.00 in Fog , Snow Light Snow
1:31 PM -11.2 °F -41.9 °F -16.6 °F 77% 30.38 in 0.5 mi East 32.2 mph - N/A Fog , Snow Light Snow
1:48 PM -11.2 °F -40.6 °F -16.6 °F 77% 30.39 in 0.8 mi East 28.8 mph 35.7 mph N/A   Clear
1:58 PM -11.2 °F -40.6 °F -16.6 °F 77% 30.38 in 1.0 mi East 28.8 mph - N/A   Haze
2:01 PM -11.0 °F -40.4 °F -15.0 °F 83% 30.38 in 1.0 mi East 28.8 mph - N/A   Clear
2:43 PM -9.4 °F -38.6 °F -14.8 °F 77% 30.37 in 1.2 mi East 29.9 mph - N/A   Clear
3:01 PM -9.4 °F -38.2 °F -14.8 °F 77% 30.37 in 1.0 mi East 28.8 mph - N/A   Mist
3:07 PM -9.9 °F -39.3 °F -14.1 °F 82% 30.36 in 1.0 mi East 29.9 mph - N/A   Mist
3:53 PM -9.4 °F -36.3 °F -13.0 °F 84% 30.35 in 1.5 mi East 24.2 mph - N/A   Mist
4:01 PM -9.4 °F -37.3 °F -13.0 °F 84% 30.35 in 2.0 mi East 26.5 mph - N/A   Mist
4:12 PM -9.4 °F -37.3 °F -13.0 °F 84% 30.35 in 1.8 mi East 26.5 mph - N/A   Clear
4:38 PM -9.4 °F -36.8 °F -14.8 °F 77% 30.34 in - East 25.3 mph - N/A   Unknown
4:48 PM -9.4 °F -36.8 °F -13.0 °F 84% 30.34 in 2.5 mi East 25.3 mph - N/A   Mist
4:59 PM -9.4 °F -38.6 °F -14.8 °F 77% 30.33 in 1.0 mi East 29.9 mph - N/A   Haze
5:00 PM -9.9 °F -39.3 °F -14.1 °F 82% 30.33 in 1.0 mi East 29.9 mph - N/A   Mist
5:35 PM -9.4 °F -37.3 °F -14.8 °F 77% 30.33 in 1.2 mi ESE 26.5 mph - N/A   Clear
5:54 PM -9.4 °F -39.0 °F -14.8 °F 77% 30.32 in 0.8 mi ESE 31.1 mph 36.8 mph 0.00 in Snow Light Snow
6:01 PM -9.9 °F -39.7 °F -15.0 °F 78% 30.33 in 0.8 mi ESE 31.1 mph - 0.00 in Snow Light Snow
6:10 PM -9.4 °F -39.0 °F -14.8 °F 77% 30.33 in 1.0 mi ESE 31.1 mph - 0.00 in Snow Light Snow
6:42 PM -11.2 °F -42.3 °F -14.8 °F 84% 30.32 in 1.2 mi ESE 33.4 mph 36.8 mph N/A Snow Light Snow
6:57 PM -11.2 °F -40.6 °F -16.6 °F 77% 30.32 in 2.0 mi ESE 28.8 mph - N/A   Haze
7:01 PM -11.0 °F -40.8 °F -16.1 °F 78% 30.32 in 2.5 mi ESE 29.9 mph 36.8 mph N/A   Haze
7:21 PM -11.2 °F -41.5 °F -16.6 °F 77% 30.31 in 1.8 mi East 31.1 mph - 0.00 in Snow Light Snow
8:01 PM -11.9 °F -42.0 °F -16.1 °F 82% 30.30 in 1.5 mi East 29.9 mph - 0.00 in Snow Light Snow
8:42 PM -11.2 °F -41.9 °F -16.6 °F 77% 30.29 in 1.5 mi ESE 32.2 mph - N/A Snow Light Snow
9:01 PM -11.9 °F -42.0 °F -17.0 °F 78% 30.29 in 1.8 mi East 29.9 mph 36.8 mph N/A   Haze
9:10 PM -11.2 °F -40.6 °F -16.6 °F 77% 30.29 in 2.5 mi ESE 28.8 mph - N/A   Haze
9:33 PM -11.2 °F -40.6 °F -16.6 °F 77% 30.28 in 1.2 mi East 28.8 mph 36.8 mph 0.00 in Snow Light Snow
10:01 PM -11.9 °F -41.6 °F -17.0 °F 78% 30.27 in 1.2 mi East 28.8 mph 35.7 mph 0.00 in Snow Light Snow
10:38 PM -11.2 °F -41.5 °F -16.6 °F 77% 30.27 in 1.0 mi East 31.1 mph 38.0 mph 0.00 in Snow Light Snow
11:01 PM -11.9 °F -42.4 °F -16.1 °F 82% 30.26 in 1.0 mi East 31.1 mph 39.1 mph 0.00 in Snow Light Snow
11:20 PM -11.2 °F -41.5 °F -14.8 °F 84% 30.25 in 1.2 mi East 31.1 mph - 0.00 in Snow Light Snow
11:27 PM -11.2 °F -41.5 °F -14.8 °F 84% 30.25 in 1.0 mi East 31.1 mph - 0.00 in Snow Light Snow